Time,TemperatureF,DewpointF,PressureIn,WindDirection,WindDirectionDegrees,WindSpeedMPH,WindSpeedGustMPH,Humidity,HourlyPrecipIn,Conditions,Clouds,dailyrainin,SolarRadiationWatts/m^2,SoftwareType,DateUTC
2013-03-25 00:00:00,36.0,35.4,29.52,SW,222,0.0,8.0,98,0.03,,,1.28,0.0,meteohub,2013-03-25 04:00:00,
2013-03-25 00:01:00,36.0,35.4,29.52,SW,222,0.0,8.0,98,0.03,,,1.28,0.0,meteohub,2013-03-25 04:01:00,
2013-03-25 00:06:00,36.0,35.4,29.52,WSW,243,1.0,3.0,98,0.03,,,0.00,0.0,meteohub,2013-03-25 04:06:00,
2013-03-25 00:11:00,36.0,35.4,29.52,WSW,237,2.0,3.0,98,0.03,,,0.00,0.0,meteohub,2013-03-25 04:11:00,
2013-03-25 00:16:00,36.0,35.4,29.52,SE,134,2.0,4.0,98,0.03,,,0.00,0.0,meteohub,2013-03-25 04:16:00,
2013-03-25 00:21:00,36.0,35.4,29.52,SW,235,1.0,4.0,98,0.03,,,0.00,0.0,meteohub,2013-03-25 04:21:00,
2013-03-25 00:26:00,36.0,35.4,29.52,WSW,248,1.0,4.0,98,0.03,,,0.00,0.0,meteohub,2013-03-25 04:26:00,
2013-03-25 00:31:00,36.0,35.4,29.52,SSW,193,2.0,5.0,98,0.02,,,0.00,0.0,meteohub,2013-03-25 04:31:00,
2013-03-25 00:36:00,36.1,35.6,29.52,SSW,209,0.0,5.0,98,0.01,,,0.00,0.0,meteohub,2013-03-25 04:36:00,
2013-03-25 00:42:00,36.1,35.6,29.52,SSW,209,0.0,4.0,98,0.00,,,0.00,0.0,meteohub,2013-03-25 04:42:00,
2013-03-25 00:47:00,36.1,35.6,29.52,SSW,209,1.0,3.0,98,0.00,,,0.00,0.0,meteohub,2013-03-25 04:47:00,
2013-03-25 00:52:00,36.1,35.6,29.52,SSW,209,0.0,2.0,98,0.00,,,0.00,0.0,meteohub,2013-03-25 04:52:00,
2013-03-25 00:57:00,36.0,35.4,29.53,SSW,209,0.0,2.0,98,0.00,,,0.00,0.0,meteohub,2013-03-25 04:57:00,
2013-03-25 01:02:00,35.8,35.2,29.52,WSW,240,5.0,5.0,98,0.00,,,0.00,0.0,meteohub,2013-03-25 05:02:00,
2013-03-25 01:07:00,35.2,34.7,29.52,SSW,202,3.0,9.0,98,0.00,,,0.00,0.0,meteohub,2013-03-25 05:07:00,
2013-03-25 01:12:00,34.7,34.2,29.52,ESE,119,5.0,9.0,98,0.00,,,0.00,0.0,meteohub,2013-03-25 05:12:00,
2013-03-25 01:17:00,33.6,33.1,29.52,WSW,254,3.0,15.0,98,0.00,,,0.00,0.0,meteohub,2013-03-25 05:17:00,
2013-03-25 01:22:00,33.1,32.5,29.52,West,265,1.0,15.0,98,0.00,,,0.00,0.0,meteohub,2013-03-25 05:22:00,
2013-03-25 01:27:00,32.5,32.0,29.52,West,271,3.0,15.0,98,0.00,,,0.00,0.0,meteohub,2013-03-25 05:27:00,
2013-03-25 01:32:00,32.2,31.5,29.52,SSW,192,1.0,9.0,97,0.00,,,0.00,0.0,meteohub,2013-03-25 05:32:00,
2013-03-25 01:37:00,32.0,31.3,29.52,East,92,0.0,9.0,97,0.00,,,0.00,0.0,meteohub,2013-03-25 05:37:00,
2013-03-25 01:42:00,32.0,31.3,29.52,South,179,1.0,9.0,97,0.00,,,0.00,0.0,meteohub,2013-03-25 05:42:00,
2013-03-25 01:47:00,32.0,31.3,29.52,SE,128,1.0,16.0,97,0.00,,,0.00,0.0,meteohub,2013-03-25 05:47:00,
2013-03-25 01:52:00,32.0,31.3,29.51,West,269,6.0,16.0,97,0.00,,,0.00,0.0,meteohub,2013-03-25 05:52:00,
2013-03-25 01:57:00,32.2,31.5,29.51,SSW,211,3.0,11.0,97,0.00,,,0.00,0.0,meteohub,2013-03-25 05:57:00,
2013-03-25 02:02:00,32.2,30.9,29.51,ENE,64,7.0,9.0,95,0.00,,,0.00,0.0,meteohub,2013-03-25 06:02:00,
2013-03-25 02:07:00,32.2,30.6,29.52,SW,234,4.0,9.0,94,0.00,,,0.00,0.0,meteohub,2013-03-25 06:07:00,
2013-03-25 02:12:00,32.4,30.4,29.52,SW,225,5.0,10.0,92,0.00,,,0.00,0.0,meteohub,2013-03-25 06:12:00,
2013-03-25 02:18:00,32.4,30.0,29.52,East,91,1.0,10.0,91,0.00,,,0.00,0.0,meteohub,2013-03-25 06:18:00,
2013-03-25 02:23:00,32.4,30.0,29.52,South,190,1.0,12.0,91,0.00,,,0.00,0.0,meteohub,2013-03-25 06:23:00,
2013-03-25 02:28:00,32.4,29.8,29.52,WNW,282,6.0,12.0,90,0.00,,,0.00,0.0,meteohub,2013-03-25 06:28:00,
2013-03-25 02:33:00,32.4,29.8,29.53,West,274,3.0,12.0,90,0.00,,,0.00,0.0,meteohub,2013-03-25 06:33:00,
2013-03-25 02:38:00,32.4,29.5,29.53,ESE,115,2.0,8.0,89,0.00,,,0.00,0.0,meteohub,2013-03-25 06:38:00,
2013-03-25 02:43:00,32.4,29.5,29.53,SW,229,2.0,10.0,89,0.00,,,0.00,0.0,meteohub,2013-03-25 06:43:00,
2013-03-25 02:48:00,32.4,29.8,29.53,ESE,123,2.0,10.0,90,0.00,,,0.00,0.0,meteohub,2013-03-25 06:48:00,
2013-03-25 02:53:00,32.4,29.1,29.53,SW,229,3.0,7.0,88,0.00,,,0.00,0.0,meteohub,2013-03-25 06:53:00,
2013-03-25 02:58:00,32.4,28.9,29.52,WNW,292,7.0,11.0,87,0.00,,,0.00,0.0,meteohub,2013-03-25 06:58:00,
2013-03-25 03:03:00,32.4,28.6,29.52,West,269,2.0,16.0,86,0.00,,,0.00,0.0,meteohub,2013-03-25 07:03:00,
2013-03-25 03:08:00,32.4,28.6,29.52,ESE,109,3.0,16.0,86,0.00,,,0.00,0.0,meteohub,2013-03-25 07:08:00,
2013-03-25 03:13:00,32.4,28.4,29.52,WNW,296,3.0,16.0,85,0.00,,,0.00,0.0,meteohub,2013-03-25 07:13:00,
2013-03-25 03:18:00,32.2,28.2,29.52,SW,216,1.0,12.0,85,0.00,,,0.00,0.0,meteohub,2013-03-25 07:18:00,
2013-03-25 03:23:00,32.2,27.9,29.52,SE,126,5.0,12.0,84,0.00,,,0.00,0.0,meteohub,2013-03-25 07:23:00,
2013-03-25 03:28:00,32.2,27.7,29.52,WNW,294,4.0,8.0,83,0.00,,,0.00,0.0,meteohub,2013-03-25 07:28:00,
2013-03-25 03:34:00,32.2,27.7,29.52,WSW,254,0.0,8.0,83,0.00,,,0.00,0.0,meteohub,2013-03-25 07:34:00,
2013-03-25 03:39:00,32.2,27.9,29.52,West,273,5.0,8.0,84,0.00,,,0.00,0.0,meteohub,2013-03-25 07:39:00,
2013-03-25 03:44:00,32.2,27.9,29.52,ENE,72,2.0,12.0,84,0.00,,,0.00,0.0,meteohub,2013-03-25 07:44:00,
2013-03-25 03:49:00,32.2,27.9,29.52,SW,218,1.0,12.0,84,0.00,,,0.00,0.0,meteohub,2013-03-25 07:49:00,
2013-03-25 03:54:00,32.2,27.9,29.52,SW,214,5.0,8.0,84,0.00,,,0.00,0.0,meteohub,2013-03-25 07:54:00,
2013-03-25 03:59:00,32.2,27.9,29.52,South,176,3.0,8.0,84,0.00,,,0.00,0.0,meteohub,2013-03-25 07:59:00,
2013-03-25 04:04:00,32.2,28.2,29.52,South,182,0.0,8.0,85,0.00,,,0.00,0.0,meteohub,2013-03-25 08:04:00,
2013-03-25 04:09:00,32.0,28.0,29.53,WSW,247,6.0,7.0,85,0.00,,,0.00,0.0,meteohub,2013-03-25 08:09:00,
2013-03-25 04:14:00,31.8,27.9,29.52,SSW,198,6.0,12.0,85,0.00,,,0.00,0.0,meteohub,2013-03-25 08:14:00,
2013-03-25 04:19:00,31.6,27.7,29.52,NW,310,1.0,12.0,85,0.00,,,0.00,0.0,meteohub,2013-03-25 08:19:00,
2013-03-25 04:24:00,31.6,27.7,29.53,SSW,199,4.0,12.0,85,0.00,,,0.00,0.0,meteohub,2013-03-25 08:24:00,
2013-03-25 04:29:00,31.5,27.5,29.53,WNW,294,1.0,8.0,85,0.00,,,0.00,0.0,meteohub,2013-03-25 08:29:00,
2013-03-25 04:35:00,31.5,27.5,29.53,ENE,57,3.0,8.0,85,0.00,,,0.00,0.0,meteohub,2013-03-25 08:35:00,
2013-03-25 04:40:00,31.3,27.0,29.53,WSW,257,1.0,7.0,84,0.00,,,0.00,0.0,meteohub,2013-03-25 08:40:00,
2013-03-25 04:45:00,31.1,27.1,29.53,NNE,20,1.0,9.0,85,0.00,,,0.00,0.0,meteohub,2013-03-25 08:45:00,
2013-03-25 04:50:00,30.9,27.0,29.53,SSE,149,1.0,9.0,85,0.00,,,0.00,0.0,meteohub,2013-03-25 08:50:00,
2013-03-25 04:55:00,30.7,27.1,29.54,SSW,202,2.0,9.0,86,0.00,,,0.00,0.0,meteohub,2013-03-25 08:55:00,
2013-03-25 05:00:00,30.6,27.0,29.54,West,280,2.0,12.0,86,0.00,,,0.00,0.0,meteohub,2013-03-25 09:00:00,
2013-03-25 05:05:00,30.4,26.4,29.54,SW,236,1.0,12.0,85,0.00,,,0.00,0.0,meteohub,2013-03-25 09:05:00,
2013-03-25 05:10:00,30.2,26.6,29.54,WNW,291,3.0,12.0,86,0.00,,,0.00,0.0,meteohub,2013-03-25 09:10:00,
2013-03-25 05:15:00,30.0,26.1,29.55,NE,41,1.0,12.0,85,0.00,,,0.00,0.0,meteohub,2013-03-25 09:15:00,
2013-03-25 05:20:00,29.8,25.9,29.55,NE,38,1.0,12.0,85,0.00,,,0.00,0.0,meteohub,2013-03-25 09:20:00,
2013-03-25 05:25:00,29.7,25.7,29.55,NE,53,5.0,8.0,85,0.00,,,0.00,0.0,meteohub,2013-03-25 09:25:00,
2013-03-25 05:30:00,29.7,25.7,29.55,WNW,290,1.0,12.0,85,0.00,,,0.00,0.0,meteohub,2013-03-25 09:30:00,
2013-03-25 05:35:00,29.5,25.2,29.55,SSE,151,3.0,12.0,84,0.00,,,0.00,0.0,meteohub,2013-03-25 09:35:00,
2013-03-25 05:40:00,29.3,24.8,29.55,WNW,286,2.0,11.0,83,0.00,,,0.00,0.0,meteohub,2013-03-25 09:40:00,
2013-03-25 05:46:00,29.1,24.3,29.56,SW,232,0.0,6.0,82,0.00,,,0.00,0.0,meteohub,2013-03-25 09:46:00,
2013-03-25 05:51:00,28.9,24.1,29.56,South,169,7.0,8.0,82,0.00,,,0.00,0.0,meteohub,2013-03-25 09:51:00,
2013-03-25 05:56:00,28.8,23.9,29.56,West,265,8.0,13.0,82,0.00,,,0.00,0.0,meteohub,2013-03-25 09:56:00,
2013-03-25 06:01:00,28.8,23.9,29.56,SW,227,2.0,13.0,82,0.00,,,0.00,0.0,meteohub,2013-03-25 10:01:00,
2013-03-25 06:06:00,28.6,23.7,29.56,South,169,1.0,13.0,82,0.00,,,0.00,0.0,meteohub,2013-03-25 10:06:00,
2013-03-25 06:11:00,28.4,23.5,29.56,NNW,327,2.0,12.0,82,0.00,,,0.00,0.0,meteohub,2013-03-25 10:11:00,
2013-03-25 06:17:00,28.4,23.9,29.56,West,276,1.0,12.0,83,0.00,,,0.00,0.0,meteohub,2013-03-25 10:17:00,
2013-03-25 06:22:00,28.2,23.7,29.56,WNW,294,0.0,12.0,83,0.00,,,0.00,0.0,meteohub,2013-03-25 10:22:00,
2013-03-25 06:27:00,28.2,23.7,29.56,SSE,155,3.0,8.0,83,0.00,,,0.00,0.0,meteohub,2013-03-25 10:27:00,
2013-03-25 06:32:00,28.0,23.9,29.56,NE,55,4.0,7.0,84,0.00,,,0.00,0.0,meteohub,2013-03-25 10:32:00,
2013-03-25 06:37:00,28.0,23.5,29.56,West,259,3.0,11.0,83,0.00,,,0.00,0.0,meteohub,2013-03-25 10:37:00,
2013-03-25 06:42:00,28.0,23.9,29.57,WSW,252,2.0,11.0,84,0.00,,,0.00,0.0,meteohub,2013-03-25 10:42:00,
2013-03-25 06:47:00,28.0,23.9,29.57,WSW,254,2.0,11.0,84,0.00,,,0.00,0.0,meteohub,2013-03-25 10:47:00,
2013-03-25 06:52:00,28.0,24.1,29.57,WNW,287,1.0,9.0,85,0.00,,,0.00,0.0,meteohub,2013-03-25 10:52:00,
2013-03-25 06:57:00,27.9,24.4,29.57,South,180,2.0,7.0,87,0.00,,,0.00,0.0,meteohub,2013-03-25 10:57:00,
2013-03-25 07:03:00,27.7,24.6,29.57,WNW,297,5.0,7.0,88,0.00,,,0.00,0.0,meteohub,2013-03-25 11:03:00,
2013-03-25 07:08:00,27.3,23.9,29.57,NNW,338,2.0,12.0,87,0.00,,,0.00,0.0,meteohub,2013-03-25 11:08:00,
2013-03-25 07:13:00,27.1,23.5,29.57,NE,38,1.0,12.0,86,0.00,,,0.00,0.0,meteohub,2013-03-25 11:13:00,
2013-03-25 07:18:00,27.0,22.8,29.57,NNW,348,1.0,12.0,84,0.00,,,0.00,0.0,meteohub,2013-03-25 11:18:00,
2013-03-25 07:23:00,26.8,22.3,29.57,WNW,284,1.0,15.0,83,0.00,,,0.00,0.0,meteohub,2013-03-25 11:23:00,
2013-03-25 07:28:00,26.8,21.7,29.58,West,271,2.0,15.0,81,0.00,,,0.00,0.0,meteohub,2013-03-25 11:28:00,
2013-03-25 07:33:00,26.8,21.7,29.58,East,87,3.0,15.0,81,0.00,,,0.00,0.0,meteohub,2013-03-25 11:33:00,
2013-03-25 07:38:00,26.8,21.4,29.58,SSE,160,1.0,11.0,80,0.00,,,0.00,5.0,meteohub,2013-03-25 11:38:00,
2013-03-25 07:43:00,26.8,20.8,29.58,ESE,113,2.0,11.0,78,0.00,,,0.00,7.0,meteohub,2013-03-25 11:43:00,
2013-03-25 07:48:00,26.8,21.2,29.59,WSW,251,1.0,11.0,79,0.00,,,0.00,9.0,meteohub,2013-03-25 11:48:00,
2013-03-25 07:53:00,26.8,21.2,29.58,West,277,4.0,9.0,79,0.00,,,0.00,12.0,meteohub,2013-03-25 11:53:00,
2013-03-25 07:58:00,27.0,21.6,29.59,NNW,336,5.0,7.0,80,0.00,,,0.00,14.0,meteohub,2013-03-25 11:58:00,
2013-03-25 08:03:00,27.0,21.9,29.59,West,267,1.0,11.0,81,0.00,,,0.00,12.0,meteohub,2013-03-25 12:03:00,
2013-03-25 08:09:00,27.0,22.3,29.60,South,178,2.0,11.0,82,0.00,,,0.00,16.0,meteohub,2013-03-25 12:09:00,
2013-03-25 08:14:00,26.8,22.6,29.60,North,355,0.0,11.0,84,0.00,,,0.00,16.0,meteohub,2013-03-25 12:14:00,
2013-03-25 08:19:00,26.8,22.8,29.60,West,261,0.0,6.0,85,0.00,,,0.00,16.0,meteohub,2013-03-25 12:19:00,
2013-03-25 08:24:00,26.4,23.0,29.60,West,269,1.0,10.0,87,0.00,,,0.00,16.0,meteohub,2013-03-25 12:24:00,
2013-03-25 08:29:00,26.2,23.2,29.60,West,261,1.0,10.0,88,0.00,,,0.00,46.0,meteohub,2013-03-25 12:29:00,
2013-03-25 08:34:00,26.1,22.6,29.60,SW,223,1.0,9.0,87,0.00,,,0.00,40.0,meteohub,2013-03-25 12:34:00,
2013-03-25 08:39:00,26.1,22.5,29.60,ENE,74,1.0,8.0,86,0.00,,,0.00,49.0,meteohub,2013-03-25 12:39:00,
2013-03-25 08:44:00,26.2,22.3,29.61,WNW,284,3.0,8.0,85,0.00,,,0.00,54.0,meteohub,2013-03-25 12:44:00,
2013-03-25 08:49:00,26.2,22.1,29.61,West,277,3.0,15.0,84,0.00,,,0.00,77.0,meteohub,2013-03-25 12:49:00,
2013-03-25 08:54:00,26.4,21.9,29.61,West,270,2.0,15.0,83,0.00,,,0.00,100.0,meteohub,2013-03-25 12:54:00,
2013-03-25 08:59:00,26.8,22.1,29.61,ESE,103,2.0,15.0,82,0.00,,,0.00,98.0,meteohub,2013-03-25 12:59:00,
2013-03-25 09:04:00,27.0,22.3,29.61,SW,228,2.0,10.0,82,0.00,,,0.00,137.0,meteohub,2013-03-25 13:04:00,
2013-03-25 09:09:00,27.1,21.7,29.61,NW,321,2.0,10.0,80,0.00,,,0.00,125.0,meteohub,2013-03-25 13:09:00,
2013-03-25 09:14:00,27.3,21.7,29.61,ESE,119,3.0,9.0,79,0.00,,,0.00,197.0,meteohub,2013-03-25 13:14:00,
2013-03-25 09:19:00,27.9,22.3,29.61,SW,227,5.0,9.0,79,0.00,,,0.00,83.0,meteohub,2013-03-25 13:19:00,
2013-03-25 09:25:00,27.7,21.7,29.61,NNW,342,0.0,10.0,78,0.00,,,0.00,190.0,meteohub,2013-03-25 13:25:00,
2013-03-25 09:30:00,27.9,21.9,29.60,NNE,23,4.0,20.0,78,0.00,,,0.00,204.0,meteohub,2013-03-25 13:30:00,
2013-03-25 09:35:00,27.9,21.0,29.62,ENE,74,10.0,20.0,75,0.00,,,0.00,104.0,meteohub,2013-03-25 13:35:00,
2013-03-25 09:40:00,28.2,21.0,29.61,WNW,282,1.0,20.0,74,0.00,,,0.00,243.0,meteohub,2013-03-25 13:40:00,
2013-03-25 09:45:00,28.4,20.1,29.62,South,169,3.0,14.0,71,0.00,,,0.00,216.0,meteohub,2013-03-25 13:45:00,
2013-03-25 09:50:00,28.8,20.8,29.61,WNW,298,5.0,13.0,72,0.00,,,0.00,192.0,meteohub,2013-03-25 13:50:00,
2013-03-25 09:55:00,28.8,21.2,29.62,ESE,109,5.0,18.0,73,0.00,,,0.00,385.0,meteohub,2013-03-25 13:55:00,
2013-03-25 10:00:00,29.3,21.7,29.62,NNW,340,2.0,18.0,73,0.00,,,0.00,476.0,meteohub,2013-03-25 14:00:00,
2013-03-25 10:05:00,29.8,21.6,29.63,SSW,205,5.0,12.0,71,0.00,,,0.00,459.0,meteohub,2013-03-25 14:05:00,
2013-03-25 10:10:00,29.8,20.8,29.63,WNW,296,8.0,13.0,69,0.00,,,0.00,450.0,meteohub,2013-03-25 14:10:00,
2013-03-25 10:15:00,29.7,20.5,29.62,SE,131,10.0,11.0,68,0.00,,,0.00,503.0,meteohub,2013-03-25 14:15:00,
2013-03-25 10:20:00,30.0,21.7,29.63,SSE,167,3.0,16.0,71,0.00,,,0.00,489.0,meteohub,2013-03-25 14:20:00,
2013-03-25 10:25:00,30.7,22.5,29.64,WSW,246,7.0,16.0,71,0.00,,,0.00,513.0,meteohub,2013-03-25 14:25:00,
2013-03-25 10:30:00,30.6,20.8,29.64,SW,222,2.0,16.0,67,0.00,,,0.00,473.0,meteohub,2013-03-25 14:30:00,
2013-03-25 10:35:00,30.7,21.7,29.64,WSW,252,5.0,10.0,69,0.00,,,0.00,473.0,meteohub,2013-03-25 14:35:00,
2013-03-25 10:40:00,30.7,22.5,29.65,West,281,3.0,11.0,71,0.00,,,0.00,664.0,meteohub,2013-03-25 14:40:00,
2013-03-25 10:46:00,30.6,21.9,29.65,SSE,158,6.0,11.0,70,0.00,,,0.00,380.0,meteohub,2013-03-25 14:46:00,
2013-03-25 10:50:00,30.7,22.8,29.65,SSW,201,2.0,11.0,72,0.00,,,0.00,366.0,meteohub,2013-03-25 14:50:00,
2013-03-25 10:56:00,30.7,23.4,29.66,WSW,249,6.0,13.0,74,0.00,,,0.00,552.0,meteohub,2013-03-25 14:56:00,
2013-03-25 11:01:00,30.7,22.8,29.65,North,355,4.0,13.0,72,0.00,,,0.00,415.0,meteohub,2013-03-25 15:01:00,
2013-03-25 11:06:00,31.3,23.4,29.66,NW,312,4.0,12.0,72,0.00,,,0.00,541.0,meteohub,2013-03-25 15:06:00,
2013-03-25 11:11:00,32.0,23.0,29.66,SW,215,4.0,9.0,69,0.00,,,0.00,670.0,meteohub,2013-03-25 15:11:00,
2013-03-25 11:16:00,32.2,23.2,29.66,WSW,241,5.0,11.0,69,0.00,,,0.00,856.0,meteohub,2013-03-25 15:16:00,
2013-03-25 11:21:00,31.8,22.1,29.66,SW,225,3.0,11.0,67,0.00,,,0.00,643.0,meteohub,2013-03-25 15:21:00,
2013-03-25 11:26:00,32.4,23.0,29.67,West,263,8.0,11.0,68,0.00,,,0.00,817.0,meteohub,2013-03-25 15:26:00,
2013-03-25 11:31:00,32.2,22.5,29.67,WSW,245,5.0,11.0,67,0.00,,,0.00,346.0,meteohub,2013-03-25 15:31:00,
2013-03-25 11:36:00,31.6,23.0,29.68,SSW,211,7.0,11.0,70,0.00,,,0.00,237.0,meteohub,2013-03-25 15:36:00,
2013-03-25 11:41:00,31.5,23.2,29.68,SSE,163,1.0,11.0,71,0.00,,,0.00,696.0,meteohub,2013-03-25 15:41:00,
2013-03-25 11:46:00,32.2,24.3,29.68,WNW,288,6.0,16.0,72,0.00,,,0.00,779.0,meteohub,2013-03-25 15:46:00,
2013-03-25 11:51:00,32.7,24.4,29.69,WNW,292,4.0,16.0,71,0.00,,,0.00,810.0,meteohub,2013-03-25 15:51:00,
2013-03-25 11:56:00,33.1,24.1,29.69,West,261,8.0,11.0,69,0.00,,,0.00,905.0,meteohub,2013-03-25 15:56:00,
2013-03-25 12:02:00,33.4,24.4,29.69,WSW,252,4.0,12.0,69,0.01,,,0.01,858.0,meteohub,2013-03-25 16:02:00,
2013-03-25 12:07:00,34.0,24.6,29.69,SSW,204,3.0,12.0,68,0.01,,,0.01,868.0,meteohub,2013-03-25 16:07:00,
2013-03-25 12:12:00,34.9,25.0,29.70,WSW,245,8.0,12.0,67,0.01,,,0.01,805.0,meteohub,2013-03-25 16:12:00,
2013-03-25 12:17:00,33.6,24.3,29.69,South,191,5.0,13.0,68,0.01,,,0.01,893.0,meteohub,2013-03-25 16:17:00,
2013-03-25 12:22:00,33.6,23.5,29.69,SSW,196,7.0,13.0,66,0.01,,,0.01,724.0,meteohub,2013-03-25 16:22:00,
2013-03-25 12:27:00,34.0,25.5,29.69,SSW,193,3.0,13.0,71,0.01,,,0.01,916.0,meteohub,2013-03-25 16:27:00,
2013-03-25 12:32:00,34.3,24.1,29.69,South,172,8.0,14.0,66,0.01,,,0.01,904.0,meteohub,2013-03-25 16:32:00,
2013-03-25 12:38:00,34.9,24.6,29.69,WNW,285,3.0,14.0,66,0.01,,,0.01,893.0,meteohub,2013-03-25 16:38:00,
2013-03-25 12:43:00,34.5,24.3,29.69,WNW,286,6.0,13.0,66,0.01,,,0.01,789.0,meteohub,2013-03-25 16:43:00,
2013-03-25 12:48:00,34.3,24.8,29.69,South,178,3.0,13.0,68,0.01,,,0.01,693.0,meteohub,2013-03-25 16:48:00,
2013-03-25 12:53:00,33.6,23.5,29.70,West,265,2.0,12.0,66,0.01,,,0.01,902.0,meteohub,2013-03-25 16:53:00,
2013-03-25 12:58:00,34.9,25.0,29.69,SW,235,1.0,12.0,67,0.01,,,0.01,744.0,meteohub,2013-03-25 16:58:00,
2013-03-25 13:03:00,35.4,25.9,29.69,NNW,338,4.0,12.0,68,0.00,,,0.01,954.0,meteohub,2013-03-25 17:03:00,
2013-03-25 13:08:00,35.6,26.1,29.70,SW,224,1.0,12.0,68,0.00,,,0.01,926.0,meteohub,2013-03-25 17:08:00,
2013-03-25 13:13:00,36.0,25.7,29.70,SW,229,3.0,13.0,66,0.00,,,0.01,981.0,meteohub,2013-03-25 17:13:00,
2013-03-25 13:19:00,36.0,25.7,29.70,SSW,198,7.0,13.0,66,0.00,,,0.01,311.0,meteohub,2013-03-25 17:19:00,
2013-03-25 13:24:00,34.5,23.9,29.71,NW,304,4.0,10.0,65,0.00,,,0.01,311.0,meteohub,2013-03-25 17:24:00,
2013-03-25 13:29:00,34.0,24.8,29.70,West,269,5.0,11.0,69,0.00,,,0.01,622.0,meteohub,2013-03-25 17:29:00,
2013-03-25 13:34:00,34.3,25.2,29.71,NW,311,2.0,12.0,69,0.00,,,0.01,712.0,meteohub,2013-03-25 17:34:00,
2013-03-25 13:39:00,34.3,27.9,29.71,West,280,3.0,14.0,77,0.00,,,0.01,712.0,meteohub,2013-03-25 17:39:00,
2013-03-25 13:44:00,34.9,26.4,29.71,West,269,6.0,18.0,71,0.00,,,0.01,918.0,meteohub,2013-03-25 17:44:00,
2013-03-25 13:49:00,35.8,25.5,29.71,West,273,5.0,18.0,66,0.00,,,0.01,1005.0,meteohub,2013-03-25 17:49:00,
2013-03-25 13:54:00,35.4,24.4,29.71,WSW,251,2.0,18.0,64,0.00,,,0.01,401.0,meteohub,2013-03-25 17:54:00,
2013-03-25 13:59:00,34.3,24.1,29.70,West,280,7.0,19.0,66,0.00,,,0.01,942.0,meteohub,2013-03-25 17:59:00,
2013-03-25 14:16:00,35.1,25.2,29.71,WSW,243,4.0,12.0,67,0.00,,,0.01,803.0,meteohub,2013-03-25 18:16:00,
2013-03-25 14:21:00,33.4,25.3,29.71,SW,217,4.0,14.0,72,0.00,,,0.01,715.0,meteohub,2013-03-25 18:21:00,
2013-03-25 14:26:00,33.4,25.0,29.71,NE,55,5.0,15.0,71,0.00,,,0.01,657.0,meteohub,2013-03-25 18:26:00,
2013-03-25 14:31:00,34.0,25.9,29.70,NW,323,2.0,15.0,72,0.00,,,0.01,686.0,meteohub,2013-03-25 18:31:00,
2013-03-25 14:37:00,34.3,25.2,29.70,SSW,209,3.0,15.0,69,0.00,,,0.01,918.0,meteohub,2013-03-25 18:37:00,
2013-03-25 14:42:00,36.0,27.1,29.71,South,171,4.0,13.0,70,0.00,,,0.01,1037.0,meteohub,2013-03-25 18:42:00,
2013-03-25 14:47:00,35.1,24.4,29.71,WSW,257,6.0,13.0,65,0.00,,,0.01,591.0,meteohub,2013-03-25 18:47:00,
2013-03-25 14:52:00,34.2,24.6,29.71,SW,224,9.0,13.0,68,0.00,,,0.01,425.0,meteohub,2013-03-25 18:52:00,
2013-03-25 14:57:00,33.1,25.0,29.70,SW,224,1.0,13.0,72,0.00,,,0.01,782.0,meteohub,2013-03-25 18:57:00,
2013-03-25 15:02:00,34.5,25.7,29.71,SSW,195,2.0,13.0,70,0.00,,,0.01,796.0,meteohub,2013-03-25 19:02:00,
2013-03-25 15:07:00,35.2,25.0,29.70,WSW,248,4.0,10.0,66,0.00,,,0.01,768.0,meteohub,2013-03-25 19:07:00,
2013-03-25 15:12:00,35.1,25.2,29.70,NNE,21,5.0,13.0,67,0.00,,,0.01,793.0,meteohub,2013-03-25 19:12:00,
2013-03-25 15:17:00,34.7,25.2,29.71,SSW,212,6.0,13.0,68,0.00,,,0.01,715.0,meteohub,2013-03-25 19:17:00,
2013-03-25 15:22:00,34.3,24.4,29.72,NE,56,3.0,13.0,67,0.00,,,0.01,374.0,meteohub,2013-03-25 19:22:00,
2013-03-25 15:27:00,34.2,26.1,29.71,ENE,62,4.0,13.0,72,0.00,,,0.01,819.0,meteohub,2013-03-25 19:27:00,
2013-03-25 15:33:00,34.0,24.6,29.71,SSW,207,3.0,9.0,68,0.00,,,0.01,780.0,meteohub,2013-03-25 19:33:00,
2013-03-25 15:38:00,33.6,23.2,29.71,WNW,284,6.0,14.0,65,0.00,,,0.01,657.0,meteohub,2013-03-25 19:38:00,
2013-03-25 15:43:00,34.7,24.8,29.71,SSE,153,5.0,14.0,67,0.00,,,0.01,802.0,meteohub,2013-03-25 19:43:00,
2013-03-25 15:48:00,35.4,25.2,29.71,West,262,3.0,14.0,66,0.00,,,0.01,860.0,meteohub,2013-03-25 19:48:00,
2013-03-25 15:53:00,35.8,24.8,29.71,West,281,3.0,13.0,64,0.00,,,0.01,763.0,meteohub,2013-03-25 19:53:00,
2013-03-25 15:58:00,36.1,23.5,29.71,NW,317,3.0,13.0,60,0.00,,,0.01,740.0,meteohub,2013-03-25 19:58:00,
2013-03-25 16:03:00,35.4,24.1,29.71,SSW,205,2.0,13.0,63,0.00,,,0.01,715.0,meteohub,2013-03-25 20:03:00,
2013-03-25 16:08:00,36.0,24.6,29.72,WNW,292,2.0,14.0,63,0.00,,,0.01,686.0,meteohub,2013-03-25 20:08:00,
2013-03-25 16:13:00,36.0,24.6,29.72,West,281,4.0,14.0,63,0.00,,,0.01,737.0,meteohub,2013-03-25 20:13:00,
2013-03-25 16:18:00,36.3,23.7,29.72,WNW,283,4.0,11.0,60,0.00,,,0.01,696.0,meteohub,2013-03-25 20:18:00,
2013-03-25 16:23:00,36.1,24.8,29.73,SSW,199,8.0,9.0,63,0.00,,,0.01,636.0,meteohub,2013-03-25 20:23:00,
2013-03-25 16:28:00,35.4,24.8,29.73,WNW,303,4.0,9.0,65,0.00,,,0.01,654.0,meteohub,2013-03-25 20:28:00,
2013-03-25 16:33:00,35.2,24.6,29.73,ESE,115,1.0,10.0,65,0.00,,,0.01,722.0,meteohub,2013-03-25 20:33:00,
2013-03-25 16:38:00,35.1,25.5,29.73,NE,45,4.0,11.0,68,0.00,,,0.01,728.0,meteohub,2013-03-25 20:38:00,
2013-03-25 16:43:00,35.1,23.7,29.73,SSE,159,5.0,11.0,63,0.00,,,0.01,248.0,meteohub,2013-03-25 20:43:00,
2013-03-25 16:48:00,34.2,22.5,29.73,West,260,0.0,11.0,62,0.00,,,0.01,749.0,meteohub,2013-03-25 20:48:00,
2013-03-25 16:53:00,34.7,24.4,29.73,WSW,245,3.0,11.0,66,0.00,,,0.01,323.0,meteohub,2013-03-25 20:53:00,
2013-03-25 16:58:00,35.4,23.4,29.74,SSW,206,8.0,9.0,61,0.00,,,0.01,211.0,meteohub,2013-03-25 20:58:00,
2013-03-25 17:03:00,34.5,23.2,29.75,SW,221,6.0,9.0,63,0.00,,,0.01,197.0,meteohub,2013-03-25 21:03:00,
2013-03-25 17:08:00,34.0,23.0,29.75,NW,313,3.0,12.0,64,0.00,,,0.01,207.0,meteohub,2013-03-25 21:08:00,
2013-03-25 17:14:00,34.0,22.6,29.75,West,262,5.0,12.0,63,0.00,,,0.01,220.0,meteohub,2013-03-25 21:14:00,
2013-03-25 17:19:00,34.0,23.5,29.76,NNW,329,5.0,15.0,65,0.00,,,0.01,153.0,meteohub,2013-03-25 21:19:00,
2013-03-25 17:24:00,33.3,23.5,29.76,WSW,251,7.0,15.0,67,0.00,,,0.01,248.0,meteohub,2013-03-25 21:24:00,
2013-03-25 17:29:00,32.4,21.9,29.76,WSW,251,5.0,15.0,65,0.00,,,0.01,146.0,meteohub,2013-03-25 21:29:00,
2013-03-25 17:34:00,32.2,22.5,29.76,SSW,195,1.0,12.0,67,0.00,,,0.01,276.0,meteohub,2013-03-25 21:34:00,
2013-03-25 17:39:00,32.2,22.1,29.76,SW,225,2.0,11.0,66,0.00,,,0.01,171.0,meteohub,2013-03-25 21:39:00,
2013-03-25 17:44:00,32.2,21.4,29.76,NW,304,2.0,11.0,64,0.00,,,0.01,146.0,meteohub,2013-03-25 21:44:00,
2013-03-25 17:49:00,32.2,21.0,29.77,SSW,206,1.0,7.0,63,0.00,,,0.01,146.0,meteohub,2013-03-25 21:49:00,
2013-03-25 17:54:00,32.4,21.9,29.77,SW,232,2.0,10.0,65,0.00,,,0.01,163.0,meteohub,2013-03-25 21:54:00,
2013-03-25 17:59:00,33.1,23.0,29.77,West,275,3.0,10.0,66,0.00,,,0.01,200.0,meteohub,2013-03-25 21:59:00,
2013-03-25 18:04:00,32.5,21.4,29.78,SE,126,2.0,10.0,63,0.00,,,0.01,172.0,meteohub,2013-03-25 22:04:00,
2013-03-25 18:09:00,32.4,22.3,29.78,WSW,246,2.0,9.0,66,0.00,,,0.01,206.0,meteohub,2013-03-25 22:09:00,
2013-03-25 18:14:00,32.4,21.2,29.78,SW,236,5.0,7.0,63,0.00,,,0.01,200.0,meteohub,2013-03-25 22:14:00,
2013-03-25 18:19:00,32.2,21.0,29.79,SW,223,2.0,10.0,63,0.00,,,0.01,292.0,meteohub,2013-03-25 22:19:00,
2013-03-25 18:25:00,31.6,20.5,29.79,NE,46,2.0,13.0,63,0.00,,,0.01,123.0,meteohub,2013-03-25 22:25:00,
2013-03-25 18:30:00,31.6,20.5,29.79,West,276,5.0,13.0,63,0.00,,,0.01,116.0,meteohub,2013-03-25 22:30:00,
2013-03-25 18:35:00,30.9,20.1,29.79,NNE,21,10.0,13.0,64,0.00,,,0.01,125.0,meteohub,2013-03-25 22:35:00,
2013-03-25 18:40:00,30.9,20.5,29.80,East,99,3.0,9.0,65,0.00,,,0.01,107.0,meteohub,2013-03-25 22:40:00,
2013-03-25 18:45:00,30.6,20.5,29.80,NW,319,1.0,10.0,66,0.00,,,0.01,111.0,meteohub,2013-03-25 22:45:00,
2013-03-25 18:50:00,30.2,20.5,29.81,SSE,157,3.0,13.0,67,0.00,,,0.01,100.0,meteohub,2013-03-25 22:50:00,
2013-03-25 18:55:00,30.4,21.0,29.81,SSE,155,2.0,13.0,68,0.00,,,0.01,88.0,meteohub,2013-03-25 22:55:00,
2013-03-25 19:00:00,30.2,21.2,29.81,West,267,2.0,13.0,69,0.00,,,0.01,46.0,meteohub,2013-03-25 23:00:00,
2013-03-25 19:05:00,30.0,20.5,29.82,NNE,22,4.0,8.0,67,0.00,,,0.01,25.0,meteohub,2013-03-25 23:05:00,
2013-03-25 19:10:00,29.7,20.7,29.82,West,273,1.0,8.0,69,0.00,,,0.01,23.0,meteohub,2013-03-25 23:10:00,
2013-03-25 19:15:00,29.7,21.0,29.82,ENE,65,1.0,8.0,70,0.00,,,0.01,21.0,meteohub,2013-03-25 23:15:00,
2013-03-25 19:20:00,29.3,20.5,29.83,SW,233,1.0,7.0,69,0.00,,,0.01,19.0,meteohub,2013-03-25 23:20:00,
2013-03-25 19:25:00,29.1,20.5,29.83,West,279,0.0,7.0,70,0.00,,,0.01,9.0,meteohub,2013-03-25 23:25:00,
2013-03-25 19:30:00,29.1,20.8,29.83,NW,310,2.0,8.0,71,0.00,,,0.01,11.0,meteohub,2013-03-25 23:30:00,
2013-03-25 19:36:00,28.9,20.7,29.83,South,182,4.0,8.0,71,0.00,,,0.01,0.0,meteohub,2013-03-25 23:36:00,
2013-03-25 19:41:00,28.8,20.8,29.83,West,273,2.0,8.0,72,0.00,,,0.01,0.0,meteohub,2013-03-25 23:41:00,
2013-03-25 19:46:00,28.8,20.8,29.83,WNW,290,2.0,7.0,72,0.00,,,0.01,0.0,meteohub,2013-03-25 23:46:00,
2013-03-25 19:51:00,28.6,21.4,29.83,South,177,0.0,6.0,74,0.00,,,0.01,0.0,meteohub,2013-03-25 23:51:00,
2013-03-25 19:56:00,28.6,21.0,29.84,NE,49,1.0,6.0,73,0.00,,,0.01,0.0,meteohub,2013-03-25 23:56:00,
2013-03-25 20:02:00,28.2,20.3,29.84,ESE,119,4.0,8.0,72,0.00,,,0.01,0.0,meteohub,2013-03-26 00:02:00,
2013-03-25 20:07:00,28.0,20.8,29.84,West,278,10.0,10.0,74,0.00,,,0.01,0.0,meteohub,2013-03-26 00:07:00,
2013-03-25 20:12:00,28.0,20.8,29.85,NE,49,1.0,12.0,74,0.00,,,0.01,0.0,meteohub,2013-03-26 00:12:00,
2013-03-25 20:17:00,27.9,20.7,29.85,SE,136,7.0,12.0,74,0.00,,,0.01,0.0,meteohub,2013-03-26 00:17:00,
2013-03-25 20:22:00,27.9,20.7,29.86,NE,54,8.0,12.0,74,0.00,,,0.01,0.0,meteohub,2013-03-26 00:22:00,
2013-03-25 20:27:00,27.9,20.7,29.86,West,272,13.0,13.0,74,0.00,,,0.01,0.0,meteohub,2013-03-26 00:27:00,
2013-03-25 20:32:00,27.7,20.8,29.86,SW,230,1.0,13.0,75,0.00,,,0.01,0.0,meteohub,2013-03-26 00:32:00,
2013-03-25 20:37:00,27.5,20.7,29.85,West,275,3.0,13.0,75,0.00,,,0.01,0.0,meteohub,2013-03-26 00:37:00,
2013-03-25 20:42:00,27.3,20.5,29.85,SW,217,3.0,13.0,75,0.00,,,0.01,0.0,meteohub,2013-03-26 00:42:00,
2013-03-25 20:47:00,27.1,19.9,29.86,WNW,283,2.0,13.0,74,0.00,,,0.01,0.0,meteohub,2013-03-26 00:47:00,
2013-03-25 20:52:00,27.1,20.7,29.86,NNE,31,2.0,13.0,76,0.00,,,0.01,0.0,meteohub,2013-03-26 00:52:00,
2013-03-25 20:57:00,27.1,20.3,29.86,SE,126,4.0,13.0,75,0.00,,,0.01,0.0,meteohub,2013-03-26 00:57:00,
2013-03-25 21:03:00,27.0,20.1,29.86,ESE,119,7.0,8.0,75,0.00,,,0.01,0.0,meteohub,2013-03-26 01:03:00,
2013-03-25 21:08:00,27.0,20.5,29.87,NNE,13,3.0,8.0,76,0.00,,,0.01,0.0,meteohub,2013-03-26 01:08:00,
2013-03-25 21:13:00,27.0,20.7,29.87,West,271,3.0,8.0,77,0.00,,,0.01,0.0,meteohub,2013-03-26 01:13:00,
2013-03-25 21:18:00,27.0,20.7,29.87,East,89,1.0,8.0,77,0.00,,,0.01,0.0,meteohub,2013-03-26 01:18:00,
2013-03-25 21:23:00,26.8,20.3,29.87,NNW,343,1.0,8.0,76,0.00,,,0.01,0.0,meteohub,2013-03-26 01:23:00,
2013-03-25 21:28:00,26.8,20.5,29.88,NE,54,0.0,6.0,77,0.00,,,0.01,0.0,meteohub,2013-03-26 01:28:00,
2013-03-25 21:33:00,26.8,20.8,29.88,ENE,59,2.0,6.0,78,0.00,,,0.01,0.0,meteohub,2013-03-26 01:33:00,
2013-03-25 21:38:00,26.6,20.3,29.88,NNW,340,2.0,6.0,77,0.00,,,0.01,0.0,meteohub,2013-03-26 01:38:00,
2013-03-25 21:43:00,26.6,21.0,29.89,South,182,0.0,5.0,79,0.00,,,0.01,0.0,meteohub,2013-03-26 01:43:00,
2013-03-25 21:49:00,26.4,20.5,29.89,SSW,211,1.0,10.0,78,0.00,,,0.01,0.0,meteohub,2013-03-26 01:49:00,
2013-03-25 21:54:00,26.4,20.8,29.89,SW,234,1.0,10.0,79,0.00,,,0.01,0.0,meteohub,2013-03-26 01:54:00,
2013-03-25 21:59:00,26.4,21.0,29.89,WNW,288,2.0,10.0,80,0.00,,,0.01,0.0,meteohub,2013-03-26 01:59:00,
2013-03-25 22:04:00,26.2,21.2,29.89,NE,41,1.0,8.0,81,0.00,,,0.01,0.0,meteohub,2013-03-26 02:04:00,
2013-03-25 22:09:00,26.2,21.2,29.89,NNE,23,4.0,8.0,81,0.00,,,0.01,0.0,meteohub,2013-03-26 02:09:00,
2013-03-25 22:14:00,26.1,21.4,29.89,NNE,33,4.0,8.0,82,0.00,,,0.01,0.0,meteohub,2013-03-26 02:14:00,
2013-03-25 22:19:00,26.1,21.4,29.89,SE,136,2.0,8.0,82,0.00,,,0.01,0.0,meteohub,2013-03-26 02:19:00,
2013-03-25 22:24:00,25.9,20.8,29.89,West,276,3.0,11.0,81,0.00,,,0.01,0.0,meteohub,2013-03-26 02:24:00,
2013-03-25 22:29:00,25.9,21.2,29.90,SE,135,3.0,11.0,82,0.00,,,0.01,0.0,meteohub,2013-03-26 02:29:00,
2013-03-25 22:34:00,25.7,21.0,29.90,NE,47,3.0,11.0,82,0.00,,,0.01,0.0,meteohub,2013-03-26 02:34:00,
2013-03-25 22:39:00,25.5,21.0,29.91,South,178,0.0,8.0,83,0.00,,,0.01,0.0,meteohub,2013-03-26 02:39:00,
2013-03-25 22:45:00,25.5,21.0,29.91,NW,319,4.0,8.0,83,0.00,,,0.01,0.0,meteohub,2013-03-26 02:45:00,
2013-03-25 22:50:00,25.5,21.4,29.91,WNW,290,3.0,8.0,84,0.00,,,0.01,0.0,meteohub,2013-03-26 02:50:00,
2013-03-25 22:55:00,25.5,21.4,29.90,ESE,105,1.0,8.0,84,0.00,,,0.01,0.0,meteohub,2013-03-26 02:55:00,
2013-03-25 23:00:00,25.5,21.0,29.90,WNW,296,1.0,8.0,83,0.00,,,0.01,0.0,meteohub,2013-03-26 03:00:00,
2013-03-25 23:05:00,25.5,21.0,29.90,ESE,123,1.0,8.0,83,0.00,,,0.01,0.0,meteohub,2013-03-26 03:05:00,
2013-03-25 23:10:00,25.3,21.4,29.90,ESE,123,2.0,11.0,85,0.00,,,0.01,0.0,meteohub,2013-03-26 03:10:00,
2013-03-25 23:15:00,25.3,21.4,29.91,NW,317,4.0,11.0,85,0.00,,,0.01,0.0,meteohub,2013-03-26 03:15:00,
2013-03-25 23:20:00,25.3,21.7,29.91,WSW,238,2.0,11.0,86,0.00,,,0.01,0.0,meteohub,2013-03-26 03:20:00,
2013-03-25 23:25:00,25.2,21.4,29.91,WSW,238,2.0,10.0,85,0.00,,,0.01,0.0,meteohub,2013-03-26 03:25:00,
2013-03-25 23:30:00,25.2,21.4,29.91,WSW,242,2.0,9.0,85,0.00,,,0.01,0.0,meteohub,2013-03-26 03:30:00,
2013-03-25 23:35:00,25.2,21.0,29.91,WSW,242,4.0,8.0,84,0.00,,,0.01,0.0,meteohub,2013-03-26 03:35:00,
2013-03-25 23:40:00,25.2,21.0,29.91,NNW,331,1.0,9.0,84,0.00,,,0.01,0.0,meteohub,2013-03-26 03:40:00,
2013-03-25 23:45:00,25.2,21.0,29.91,NW,315,1.0,9.0,84,0.00,,,0.01,0.0,meteohub,2013-03-26 03:45:00,
2013-03-25 23:50:00,25.2,21.4,29.91,NNW,344,2.0,9.0,85,0.00,,,0.01,0.0,meteohub,2013-03-26 03:50:00,
2013-03-25 23:55:00,25.0,21.2,29.91,ESE,113,2.0,8.0,85,0.00,,,0.01,0.0,meteohub,2013-03-26 03:55:00,